Regional Weather Roundup
Issued by NWS Wakefield, VA

Home | Current Version | Previous Version | Graphics & Text | Print | Product List | Glossary On
Versions: 1 2 3 4 5 6 7 8 9 10 11 12 13 14 15 16 17 18 19 20 21 22 23 24 25 26 27 28 29 30 31 32 33 34 35 36 37 38 39 40 41 42 43 44 45 46 47 48 49 50
000
ASUS41 KAKQ 262010
RWRAKQ

REGIONAL WEATHER ROUNDUP
NATIONAL WEATHER SERVICE WAKEFIELD VA
400 PM EDT TUE AUG 26 2014

Note: "fair" indicates few or no clouds below 12,000 feet with no
significant weather and/or obstructions to visibility. * = Denotes
station may not report precipitation (e.g., rain,snow,etc.),
thunder or fog.

VAZ042-051-052>054-056-262100-
NORTHERN VIRGINIA

CITY           SKY/WX    TMP DP  RH WIND       PRES   REMARKS
WASH NATIONAL  PTSUNNY   89  59  36 E3        30.11F
DULLES         MOSUNNY   83  58  42 CALM      30.12F
FORT BELVOIR   SUNNY     85  63  47 SE6       30.11F
QUANTICO       MOSUNNY   85  62  46 E7        30.11F
FREDERICKSBRG* SUNNY     85  62  44 E3        30.10F
STAFFORD*      MOSUNNY   83  63  51 CALM      30.15F
WARRENTON      MOSUNNY   85  68  56 CALM      30.12F
CULPEPER*      SUNNY    N/A N/A N/A CALM      30.13F
MANASSAS*      NOT AVBL
LEESBURG*      MOSUNNY   84  64  51 CALM      30.14F
WINCHESTER     MOSUNNY   82  59  44 E3        30.15F
$$

VAZ048-049-060>072-079>083-262100-
CENTRAL AND SOUTH CENTRAL VIRGINIA...AND NORTH CENTRAL NORTH CAROLINA

CITY           SKY/WX    TMP DP  RH WIND       PRES   REMARKS
RICHMOND       MOSUNNY   86  57  37 NE13      30.10F
CHESTERFIELD*  CLEAR    N/A N/A N/A E9G16     30.11F
HANOVER        SUNNY     86  61  42 E5        30.12F
TAPPAHANNOCK*  SUNNY     85  57  38 NE7       30.12F
CHARLOTTSVILLE MOSUNNY   81  60  48 E9        30.13F
ORANGE*        MOSUNNY   81  59  47 E5        30.14F
LOUISA*        MOSUNNY   82  63  51 NE5       30.12F
FARMVILLE*     SUNNY     84  57  39 N8        30.10F
SOUTH HILL*    MOSUNNY   82  63  51 N6        30.16F
ROANOKE RAPIDS CLEAR     82  61  47 NE10      30.09F
RALEIGH        MOSUNNY   81  60  48 E10       30.10F
$$

VAZ088>098-262100-
SOUTHEAST VIRGINIA

CITY           SKY/WX    TMP DP  RH WIND       PRES   REMARKS
NORFOLK        SUNNY     78  64  61 NE13      30.10F
VIRGINIA BEACH MOSUNNY   78  64  61 NE13      30.10F
NORFOLK NAVAL  MOSUNNY   80  64  58 NE9       30.12F
WEST POINT*    SUNNY     85  51  30 E12       30.13S
NEWPORT NEWS   SUNNY     84  59  42 E10       30.10F
LANGLEY AFB    SUNNY     79  65  63 E9        30.10F
FORT EUSTIS    SUNNY     83  51  32 NE8       30.09F
WILLIAMSBURG*  SUNNY     90  59  35 NE5       30.11F
FRANKLIN*      SUNNY     82  57  42 NE8       30.09F
WAKEFIELD      SUNNY     84  59  42 NE3       30.10F
$$

VAZ020-022-025-037-045-262100-
WESTERN AND SOUTHWEST VIRGINIA

CITY           SKY/WX    TMP DP  RH WIND       PRES   REMARKS
STAUNTON*      SUNNY     81  57  44 SE3       30.18S
HOT SPRINGS VA MOSUNNY   68  47  47 E6        30.28F
LYNCHBURG      MOSUNNY   79  57  46 E8        30.15F
DANVILLE       MOSUNNY   80  60  50 E6        30.13F
MARTINSVILLE   SUNNY     81  60  48 NE8       30.17S
ROANOKE        PTSUNNY   79  59  50 NW5       30.17F
BLACKSBURG     MOSUNNY   75  63  64 CALM      30.20F
DUBLIN*        PTSUNNY   77  58  51 NE3       30.19F
MARION*        MOSUNNY  N/A N/A N/A SE3       30.22F
HILLSVILLE*    MOSUNNY   74  59  58 CALM      30.20F
RICHLANDS*     CLEAR     80  56  43 CALM      30.20F
WISE*          SUNNY     79  55  44 CALM      30.21F
ABINGDON*      SUNNY     81  56  42 N3        30.17F
$$

MDZ021>025-VAZ099-100-262100-
SOUTHERN MARYLAND AND THE DELMARVA PENINSULA

CITY           SKY/WX    TMP DP  RH WIND       PRES   REMARKS
PATUXENT RIVER MOSUNNY   84  64  50 NE7       30.10F
BAY BRIDGE APT   N/A     82  61  47 NW6       30.11F
LEONARDTOWN    SUNNY     82  61  47 NE7       30.12F
DOVER          SUNNY     81  66  59 E8        30.11F
GEORGETOWN     SUNNY     83  59  44 E14G20    30.12F
EASTON         MOSUNNY   88  61  40 MISG      30.15F
CAMBRIDGE      SUNNY     86  57  37 E6        30.10F
SALISBURY      SUNNY     85  58  39 NE8       30.11F
OCEAN CITY     SUNNY     78  65  63 E8        30.12F
WALLOPS ISLAND SUNNY     79  65  62 E13       30.12F
ACCOMACK*      SUNNY     79  63  57 E10       30.10
$$

NCZ012>017-030>032-262100-
EASTERN NORTH CAROLINA

CITY           SKY/WX    TMP DP  RH WIND       PRES   REMARKS
ELIZABETH CITY SUNNY     80  66  62 NE12      30.08F
AHOSKIE*       SUNNY     81  57  43 N8        30.09F
EDENTON*       SUNNY     82  59  45 NE8       30.08S
CURRITUCK*     SUNNY     79  62  56 NE8G16    30.10F
KILL DEVIL HLS SUNNY     79  67  66 NE9G17    30.07F
MANTEO         SUNNY     78  67  68 N15       30.08S
CAPE HATTERAS  SUNNY     79  70  74 NE14G23   30.05F
GOLDSBORO      MOSUNNY   82  67  59 N13       30.06F
WASHINGTON     SUNNY     82  60  46 N10       30.07F
GREENVILLE     SUNNY     82  61  47 NE10      30.09F
NEW BERN       PTSUNNY   85  62  46 E12       30.06F
WILMINGTON     MOSUNNY   84  67  56 N13       30.03F
$$

VAZ048-262100-
ELSEWHERE

CITY           SKY/WX    TMP DP  RH WIND       PRES   REMARKS
HARRISBURG PA  MOSUNNY   85  64  49 S3        30.11F
BALTIMORE      MOSUNNY   84  59  42 CALM      30.11F
ANNAPOLIS        N/A     84  62  47 CALM      30.11F
ANDREWS AFB    SUNNY     83  64  52 SE6       30.11F
WILMINGTON DE  SUNNY     86  61  42 SE7       30.11F
PHILADELPHIA   MOSUNNY   89  60  37 SE5       30.10F
WILDWOOD NJ*   SUNNY     79  61  53 E10       30.14F
ATLANTIC CITY  SUNNY     79  61  53 SE7       30.13F
HENDERSON NC   SUNNY     79  59  50 NE10      30.11F
GREENSBORO     CLOUDY    81  59  47 NE9       30.12F
ROCKY MOUNT    MOSUNNY   82  62  50 NE8       30.08F
FAYETTEVILLE   SUNNY     85  61  44 N15G21    30.06F
CHARLOTTE      MOSUNNY   84  58  40 NE10      30.10F
$$

VAZ100-262100-
MARINE

STATION/POSITION TIME  TEMP    WIND        PRES    WAVE   SWELL
                       AIR SEA DIR/SP/G            HT/PER HT/PER
                 (UTC) (F)     (DEG/KT/KT) (MB)    (FT/S) (FT/S)
44066 TX TWR #4  2000   72 73   40/  4/  6 1020.3F   4/ 9   3/ 9
CAPE MAY NJ      2000   76 80  100/  8/ 12 1019.8F
LEWES DE         2000   74 76   90/  6/  8 1020.0F
15NM E FENWICK I 2000   73 74              1020.1F   4/ 9
OCEAN-CITY-INLET 2000   75 76   80/  5/  7 1019.9F
WACHAPREAGUE VA  2000   75 79   80/ 11/ 13 1019.7F
THOMAS POINT MD  2000   80 78  360/  5/  6 1020.4F
GOOSES REEF MD   2000   79      10/ 10/ 12 1020.2F
COVE POINT MD    2000   78     360/ 11/ 14 1019.5F
SOLOMONS ISLAND  2000      81                N/A
BISHOPS HEAD MD  2000   81 79   70/  3/  6 1019.3R
PINEY POINT MD   2000          180/  8/  9   N/A
POTOMAC MD       2000   78     230/  2/  4 1019.1S
CAMBRIDGE MD     2000   83 78   80/  7/ 10 1019.3F
LEWISETTA VA     2000   78 78  130/  3/  4 1019.4F
RAPPAHANNOCK LGT 2000           30/ 10/ 11 1019.8F
STINGRAY PT      2000   77      10/  8/  8   N/A
YORK RVR RNG VA  2000   76      60/  7/  8 1019.2F
YORKTOWN VA      2000   76 79  100/  9/  9 1019.4S
JAMESTOWN VA     2000   78     100/  6/ 12   N/A
DOMINION TERM VA 2000   79      90/  3/  9 1019.5S
KIPTOPEKE VA     2000      81   70/  7/ 13   N/A
CHES BAY BRIDGE  2000   74 77   50/ 12/ 13 1019.0S
CAPE HENRY VA    2000   74      40/ 12/ 13 1018.3F
CHESAPEAKE LGHT  1900   73      40/ 13/ 14 1020.3F
WILLOUBY STN VA  2000   75      60/  8/ 10 1018.4S
S CRANEY ISL VA  2000           10/  9/ 13 1019.1S
CAPE HENRY BUOY  2000      77                N/A     4/ 8   2/11
1ST LANDING BUOY 2000   75      60/ 12/ 14 1019.1S
CAPE CHARLES BUO 2000      77                N/A     4/ 9   3/ 9
OFFSHORE WE BUOY 2000      76                N/A     5/11   5/11
64NM E OF VA BCH 2000   77 78   50/ 16/ 17 1018.2S   5/10   3/10
DUCK PIER NC     2000   74 76   30/ 14/ 16 1018.0S
44056 DUCK FRF   2000                        N/A     5/ 9   2/11
OREGON INLET NC  2000   77 77   20/ 14/ 19 1018.2S
HATTERAS NC      2000   78 77   30/ 14/ 20 1018.0F
DIAMOND SHLS NC  2000   77      10/ 21/ 25 1016.3S   8/11   5/11
CAPE LOOKOUT NC  1900   78      40/ 17/ 20 1017.2F
$$



USA.gov is the U.S. government's official web portal to all federal, state and local government web resources and services.